Simultaneous Nadir Overpasses (SNOs) Predictions

Prediction of SNOs between TERRA and METOP-C Satellite Orbit:

Table of predicted SNOs for the next 14.0 days since TLE Epoch: 7/15/2023
Index Date (TERRA) Time (TERRA) Lat,Lon (TERRA) SZA (TERRA ) Date (METOP-C) Time (METOP-C) Lat,Lon (METOP-C) SZA (METOP-C ) Distance(km) Time Diff (sec)
1 07/15/2023 23:09:24 -80.70, 43.48 119.51 07/15/2023 23:08:14 -80.70, 43.44 119.54 0.72 70
2 07/15/2023 23:58:43 80.77,-148.12 60.61 07/15/2023 23:58:50 80.77,-148.00 60.64 2.36 7
3 07/18/2023 15:20:07 -80.73, 161.05 119.03 07/18/2023 15:19:50 -80.72, 160.88 119.05 3.00 17
4 07/18/2023 16:09:26 80.79, -30.56 61.10 07/18/2023 16:10:26 80.80, -30.55 61.13 0.62 60
5 07/21/2023 06:41:28 80.70, 110.44 61.42 07/21/2023 06:40:46 80.70, 110.31 61.39 2.44 42
6 07/21/2023 07:30:49 -80.76, -81.23 118.47 07/21/2023 07:31:25 -80.76, -81.35 118.47 2.12 36
7 07/23/2023 22:02:50 -80.69, 59.95 118.09 07/23/2023 22:01:44 -80.69, 59.84 118.13 2.05 66
8 07/23/2023 22:52:09 80.76,-131.68 62.04 07/23/2023 22:52:20 80.76,-131.58 62.06 1.92 11
9 07/26/2023 14:13:30 -80.73, 177.66 117.45 07/26/2023 14:13:18 -80.73, 177.58 117.47 1.51 12



Historial Predications of SNOs between TERRA and METOP-C
